(116) Sirona
ephemeris date magn radius delta ra dec elong phase
Today15 Sep 202512.72.387 AU3.377 AU11h04m+08°37'8.5°3.6°
Opposition3 May 202610.92.568 AU1.560 AU14h44m-13°44'177.9°0.8°
(116) Sirona - 2025-09-15
astro.vanbuitenen.nl


 
-1 year
-1 month
-1 day
Now
+1 day
+1 month
+1 year

The interactive orbit chart above shows the body's path through the solar system and its position at the given date. Green and blue lines are shown perpendicular to the ecliptic plane: Green if the path is above the ecliptic plane, blue if it is below. (Left-click and drag to rotate the view; Right-click and drag to move the view; Use scroll wheel to zoom in our out.)

The orbital elements of Sirona are:

            e (Eccentricity)                : 0.1383098
            a (Semimajor axis)              : 2.7692364
            i (Inclination)                 : 3.56144
            Ω (Longitude of ascending node) : 63.68037
            ω (Argument of perihelion)      : 93.90772
            M (Mean anomaly)                : 333.74194
            Epoch                           : 2025 May 05

            L (Longitude of perihelion)     : -22.40437
            B (Latitude of perihelion)      : 3.55315
            P (Orbital period in years)     : 4.61            
        

The light curve chart below shows the estimated development of the minor planet's magnitude.


The all-sky chart below shows the path of the minor planet over the same period as the light curve. The current position is marked yellow.





The following chart shows the path of the minor planet in the next few days. The field of view is optimized for (~10x50) binoculars and finderscopes. A more printer-friendly version of the same chart can be found below.




Ephemerides:
Date       Time       RA (2000)    DEC (2000)    delta   radius  elong  phase   PA    magn
2025-09-15 00:00 UT   11 04 41.3   +08 37 30     3.377    2.387    8.5    3.6   310   12.7 
2025-09-15 04:00 UT   11 04 59.5   +08 35 37     3.376    2.387    8.6    3.6   310   12.7 
2025-09-16 00:00 UT   11 06 30.4   +08 26 11     3.375    2.387    9.0    3.8   309   12.7 
2025-09-17 00:00 UT   11 08 19.4   +08 14 50     3.373    2.387    9.4    4.0   308   12.7 
2025-09-18 00:00 UT   11 10 08.4   +08 03 28     3.371    2.387    9.9    4.2   307   12.7 
2025-09-19 00:00 UT   11 11 57.2   +07 52 06     3.368    2.387   10.4    4.3   307   12.7 
2025-09-20 00:00 UT   11 13 45.9   +07 40 42     3.366    2.387   10.9    4.5   306   12.7 
2025-09-21 00:00 UT   11 15 34.5   +07 29 18     3.364    2.387   11.3    4.7   306   12.7 
2025-09-22 00:00 UT   11 17 23.0   +07 17 53     3.361    2.387   11.8    4.9   305   12.7 
2025-09-23 00:00 UT   11 19 11.3   +07 06 27     3.358    2.387   12.3    5.1   305   12.7 
2025-09-24 00:00 UT   11 20 59.6   +06 55 01     3.356    2.388   12.8    5.3   304   12.7 
2025-09-25 00:00 UT   11 22 47.7   +06 43 34     3.353    2.388   13.3    5.5   304   12.7 
2025-09-26 00:00 UT   11 24 35.7   +06 32 06     3.350    2.388   13.7    5.7   303   12.8 
2025-09-27 00:00 UT   11 26 23.6   +06 20 38     3.347    2.388   14.2    5.9   303   12.8 
2025-09-28 00:00 UT   11 28 11.4   +06 09 10     3.344    2.388   14.7    6.1   303   12.8 
2025-09-29 00:00 UT   11 29 59.1   +05 57 42     3.341    2.388   15.2    6.3   302   12.8 
2025-09-30 00:00 UT   11 31 46.6   +05 46 13     3.337    2.389   15.7    6.5   302   12.8 
2025-10-01 00:00 UT   11 33 34.0   +05 34 44     3.334    2.389   16.2    6.7   302   12.8 
2025-10-02 00:00 UT   11 35 21.3   +05 23 15     3.330    2.389   16.7    6.9   302   12.8 


    Terminology:
            
    delta:  distance between minor planet and earth in AU
    radius: distance between minor planet and sun in AU
    magn:   magnitude (brightness) estimate    
    ra:     right ascension in hours (24h = 360deg)
    dec:    declination in degrees
    elong:  elongation in degrees (angle sun-earth-minor planet)    
    phase:  phase angle in degrees (angle sun-minor planet-earth)        
    AU:     Astronomical Unit (mean distance between earth and sun: 149597870.7 km
    

Orbital elements provided by the MPC (Minor Planet Center).
Calculations by a modified version of AAPlus, a C# implementation of the AA+ project by PJ Naughter from the algorithms presented in the book "Astronomical Algorithms" by Jean Meeus.
NGC2000 dso catalog and star labels from VizieR as provided by the Strasbourg astronomical Data Center.
Tycho2 catalog from the ESO archive.